Tracking 35048 objects as of 19-Aug-2026
HD Live streaming from Space Station
objects crossing your sky now

STARLINK-5785

Track STARLINK-5785 now!
10-day predictions
STARLINK-5785 is classified as:


NORAD ID: 56031
Int'l Code: 2023-042AX
Launch date: March 24, 2022
Source: United States (US)
Launch site: AIR FORCE EASTERN TEST RANGE (AFETR)
Your satellite tracking list
Your tracking list is empty




NASA's NSSDC Master Catalog

Two Line Element Set (TLE):
1 56031U 23042AX  26230.95203238  .00000050  00000-0  11329-4 0  9996
2 56031  43.0008 208.6621 0001354 264.6579  95.4119 15.27577422187859
Source of the keplerian elements: AFSPC